FENGYUN 1C DEB, 30044

Orbit data source: Space-Track

FENGYUN 1C DEB, 30044 is space debris in SSO originally from a launch on Mon, 10 May 1999 UTC launched from the Taiyaun Space Center, China (TSC). Fengyun 1C debris stems from the Chinese weather satellite Fengyun-1C, which was intentionally destroyed by a Chinese anti-satellite missile in 2007. This event dramatically increased the amount of space debris, with thousands of trackable fragments posing hazards to satellites and human spaceflight. The Fengyun 1C debris cloud has become a focal point in discussions about space sustainability and the need for international regulations to prevent the creation of new debris.

Loading next visibility...
Identifier
30044, 1999-025NV
Orbit
SSO
Country
Flag of CNCN / PRC
Related business
Manufacturer
Unknown
Mission
Spacecraft
Bus & Motor
Unknown
Mass
Unknown
Launch date (UTC)
1999-05-10 (27 years ago)
Launch vehicle
Unknown
Launch site
Taiyaun Space Center, China (TSC)
Object type
Payload
Rocket body
Debris
Shape & HBR
Unknown shape, 0.1 m
Radar Cross Section
Small (<0.1 m²)

Expand to show TLE details & history
Last TLE update: 1 day ago

TLE from 1 day ago
0 FENGYUN 1C DEB
1 30044U 99025NV  26143.73550965  .00006486  00000-0  14998-2 0  9999
2 30044  98.2124  65.5267 0079051  30.2808 330.2921 14.53572680  3894
Epoch: 2026-05-23T17:39Z
TLE epoch observation values (Epoch: 2026-05-23T17:39:08.033Z)
Latitude
-0.00008°
Longitude
-80.6045°
Altitude
668.384 km
Speed
7.549 km/s
True Right ascension
04h 22m 06s
True Declination
0° 00' 00"
Sunlit
Object was in daylight at epoch
Visualization orbit readout
Latitude
Unknown
Longitude
Unknown
Altitude
Unknown
Speed
Unknown
Apparent Right ascension
Unknown
Apparent Declination
Unknown
Sunlit
N/A
Visualization observer readout
Local Sidereal Time
11:21:45
Azimuth
Unknown
Elevation
Unknown
Doppler factor
Unknown
Orbital elements
Apogee altitude
767.135 km
Perigee altitude
655.053 km
Semi-major axis
7,089.231 km
Eccentricity
0.00791
Inclination
98.2124°
RAAN
65.5267°
Arg. of periapsis
30.2808°
True anomaly
329.8393°
Mean anomaly
330.2921°
Eccentric anomaly
330.06609°
Mean motion
3.63617 °/min
Orbital period
99.01 mins
BSTAR
0.0014998
Loading maneuver chart data...
Computing Atmospheric mass density...

Documentation

Showing up to 5 results
|